Weather observations for the past three days for
Ormond Beach, Ormond Beach Municipal Airport
Metric (Imperial)
Date Time (edt) Wind (kph) Vis. (km) Weather Sky Cond. Temperature (ºC) Relative Humidity Wind Chill (°C) Heat Index (°C) Pressure Precipitation (cm)
Air Dwpt 6 hour altimeter (cm) sea level (mb) 1 hr 3 hr 6 hr
Max. Min.
06 17:50 S 7 11.27 Showers in Vicinity SCT050 26 26 100% 28 75.77 0.0
06 16:50 S 7 11.27 Showers in Vicinity BKN050 25 25 100% 25 75.77 0.0
06 15:50 W 13 6.44 Thunderstorm Rain BKN040 25 25 100% 25 75.87 0.0
06 14:50 NE 15 11.27 Showers in Vicinity BKN040 32 28 79% 44 75.84 0.0
06 13:50 E 15 11.27 Mostly Cloudy BKN040 32 28 79% 44 75.9 0.0
06 12:50 W 15 11.27 Partly Cloudy SCT033 32 27 75% 42 75.95 0.0
06 11:50 W 15 11.27 Partly Cloudy SCT028 32 27 75% 42 75.97 0.0
06 10:50 W 15 11.27 Partly Cloudy SCT030 31 27 79% 41 75.97 0.0
06 09:50 W 15 12.87 Partly Cloudy SCT030 30 28 89% 40 75.97 0.0
06 08:50 W 9 12.87 Fair CLR 27 27 100% 32 76 0.0
06 07:50 Calm 11.27 Fair CLR 25 25 100% 25 76 0.0
06 06:50 Calm 11.27 Fair CLR 24 24 100% 23 75.95 0.0
05 18:50 Calm 12.87 Mostly Cloudy BKN060 26 26 100% 28 75.95 0.0
05 17:50 Calm 12.87 Mostly Cloudy BKN060 25 25 100% 25 75.95 0.0
05 16:50 SE 11 12.87 Mostly Cloudy BKN060 25 25 100% 25 76 0.0
05 13:50 W 13 11.27 Showers in Vicinity SCT024 33 26 67% 42 75.97 0.0
05 12:50 W 13 11.27 Partly Cloudy SCT025 33 27 71% 44 76.05 0.0
05 11:50 W 13 11.27 Partly Cloudy SCT015 31 28 84% 42 76.12 0.0
05 10:50 W 13 11.27 Partly Cloudy SCT015 31 28 84% 42 76.12 0.0
05 09:50 SW 7 11.27 Fair CLR 28 27 94% 35 76.12 0.0
05 08:50 SW 7 11.27 Fair CLR 26 26 100% 28 76.1 0.0
05 07:50 SW 9 8.05 Fog/Mist CLR 25 25 100% 25 76.07 0.0
05 06:50 SW 7 8.05 Fog/Mist CLR 25 25 100% 25 76.05 0.0
04 18:50 SW 26 G 54 3.22 Fog/Mist Thunderstorm Rain BKN014 OVC030 26 26 100% 28 76.2 0.0
04 17:50 SE 19 11.27 Showers in Vicinity SCT040 30 28 89% 40 76.02 0.0
04 16:50 E 22 11.27 Showers in Vicinity BKN040 30 28 89% 40 76.05 0.0
04 15:50 SE 17 11.27 Showers in Vicinity BKN043 30 29 94% 42 76.1 0.0
04 14:50 E 19 11.27 Showers in Vicinity BKN026 30 29 94% 42 76.12 0.0
04 13:50 E 15 11.27 Mostly Cloudy BKN026 31 28 84% 42 76.17 0.0
04 12:50 NE 7 11.27 Mostly Cloudy BKN026 32 28 79% 44 76.2 0.0
04 11:50 SE 11 11.27 Mostly Cloudy BKN026 33 28 75% 46 76.25 0.0
04 10:50 S 6 11.27 Partly Cloudy SCT022 32 28 79% 44 76.25 0.0
04 09:50 Calm 11.27 Fair CLR 29 28 94% 38 76.2 0.0
04 08:50 Calm 11.27 Partly Cloudy SCT065 26 26 100% 28 76.2 0.0
04 07:50 Calm 11.27 Fair CLR 25 25 100% 25 76.17 0.0
04 06:50 Calm 11.27 Mostly Cloudy BKN022 25 25 100% 25 76.12 0.0
03 18:53 SE 11 11.27 Partly Cloudy SCT018 28 27 94% 35 76.07 0.0
Date Time (edt) Wind (kph) Vis. (km) Weather Sky Cond. Air Dwpt Max. Min. Relative Humidity Wind Chill (°C) Heat Index (°C) altimeter (cm) sea level (mb) 1 hr 3 hr 6 hr
6 hour
Temperature (ºC) Pressure Precipitation (cm)